This is the latest recevied weather packets stored in our database for station/object YT1XN-8. If no packets are shown the sender has not sent any weather packets the latest 10 day(s).
| Time | Temp. | Humidity | Pressure | Rain* | Wind** | Luminosity | Snow |
|---|---|---|---|---|---|---|---|
| 1778157041 | 22.78° C | 57% | 1014.9 hPa | 0 mm | - | - | - |
| 1778156444 | 23.33° C | 57% | 1015 hPa | 0 mm | - | - | - |
| 1778156381 | 23.33° C | 57% | 1015 hPa | 0 mm | - | - | - |
| 1778155842 | 23.89° C | 56% | 1015.1 hPa | 0 mm | - | - | - |
| 1778155721 | 23.89° C | 56% | 1015.2 hPa | 0 mm | - | - | - |
| 1778155061 | 23.89° C | 56% | 1015.2 hPa | 0 mm | - | - | - |
| 1778154042 | 23.33° C | 55% | 1015.4 hPa | 0 mm | - | - | - |
| 1778153741 | 23.33° C | 55% | 1015.2 hPa | 0 mm | - | - | - |
| 1778153442 | 23.33° C | 55% | 1015.2 hPa | 0 mm | - | - | - |
| 1778153081 | 22.78° C | 56% | 1015.2 hPa | 0 mm | - | - | - |
| 1778152843 | 22.78° C | 56% | 1015.3 hPa | 0 mm | - | - | - |
| 1778152421 | 22.22° C | 58% | 1015.3 hPa | 0 mm | - | - | - |
| 1778152242 | 22.22° C | 58% | 1015.3 hPa | 0 mm | - | - | - |
| 1778151761 | 22.22° C | 58% | 1015.3 hPa | 0 mm | - | - | - |
| 1778151642 | 21.67° C | 59% | 1015.3 hPa | 0 mm | - | - | - |
| 1778151101 | 21.67° C | 60% | 1015.4 hPa | 0 mm | - | - | - |
| 1778151044 | 21.67° C | 60% | 1015.4 hPa | 0 mm | - | - | - |
| 1778150442 | 21.11° C | 60% | 1015.4 hPa | 0 mm | - | - | - |
| 1778149844 | 20.56° C | 60% | 1015.5 hPa | 0 mm | - | - | - |
| 1778149782 | 20.56° C | 61% | 1015.4 hPa | 0 mm | - | - | - |
| 1778149244 | 20° C | 66% | 1015.6 hPa | 0 mm | - | - | - |
| 1778149122 | 19.44° C | 65% | 1015.6 hPa | 0 mm | - | - | - |
| 1778148643 | 18.89° C | 69% | 1015.7 hPa | 0 mm | - | - | - |
| 1778148462 | 18.89° C | 68% | 1015.7 hPa | 0 mm | - | - | - |
| 1778148043 | 18.89° C | 68% | 1015.8 hPa | 0 mm | - | - | - |
* Rain latest hour (hover to see other rain measurements)
** Current wind speed in m/s (hover to see current wind gust speed)